Location: Unspecified
(0.0000°N, 0.0000°E)
Time: 08:48:05
(UTC+00:00)

SURFSAT - Visible Passes

Search period start: 24 May 2019 00:00
Search period end: 03 June 2019 00:00
Orbit: 441 x 466 km, 93.0° (Epoch: 23 May)

Date Brightness Start Highest point End Pass type
(mag) Time Alt. Az. Time Alt. Az. Time Alt. Az.
24 May ? 19:54:46 10° NNW 19:57:32 22° W 19:58:19 21° WSW visible
25 May ? 19:20:14 10° N 19:23:42 87° W 19:24:45 43° S visible
26 May ? 18:47:01 10° NE 18:49:52 24° E 18:51:09 19° SE visible
27 May ? 19:46:11 10° NNW 19:49:02 24° W 19:51:20 13° SW visible
28 May ? 19:11:43 10° N 19:15:11 87° E 19:17:46 17° S visible
29 May ? 18:38:34 10° NE 18:41:21 22° E 18:44:09 10° SSE visible
30 May ? 19:37:35 10° NNW 19:40:30 25° W 19:43:28 10° SW visible
31 May ? 19:03:11 10° N 19:06:39 81° E 19:10:09 10° S visible
01 Jun ? 18:30:06 10° NE 18:32:49 21° E 18:35:31 10° SSE visible
02 Jun ? 19:28:57 10° NNW 19:31:58 27° W 19:34:59 10° SW visible
